| time (UTC) | temp F | wind direction | speed MPH | gust MPH | rain 1hr in | rain 24hr in | rain mn in | humidity % | barometer mb |
| 20260906212332 | 105 | 324 | 5.0 | 11.0 | 0.00 | 0.00 | 0.00 | 22 | 1013.0 |
| 20260906211837 | 104 | 204 | 3.0 | 7.0 | 0.00 | 0.00 | 0.00 | 22 | 1012.9 |
| 20260906211508 | 103 | 316 | 2.0 | 8.0 | 0.00 | 0.00 | 0.00 | 26 | 1009.5 |
| 20260906211325 | 104 | 227 | 4.0 | 8.0 | 0.00 | 0.00 | 0.00 | 22 | 1013.2 |
| 20260906210830 | 105 | 251 | 5.0 | 8.0 | 0.00 | 0.00 | 0.00 | 22 | 1013.2 |
| 20260906210340 | 105 | 234 | 3.0 | 7.0 | 0.00 | 0.00 | 0.00 | 22 | 1013.2 |
| 20260906210009 | 104 | 329 | 2.0 | 9.0 | 0.00 | 0.00 | 0.00 | 26 | 1009.8 |
| 20260906205824 | 104 | 304 | 3.0 | 8.0 | 0.00 | 0.00 | 0.00 | 22 | 1013.3 |
| 20260906205333 | 104 | 218 | 5.0 | 10.0 | 0.00 | 0.00 | 0.00 | 22 | 1013.4 |
| 20260906204818 | 105 | 240 | 6.0 | 10.0 | 0.00 | 0.00 | 0.00 | 22 | 1013.4 |
| 20260906204516 | 105 | 241 | 5.0 | 11.0 | 0.00 | 0.00 | 0.00 | 25 | 1009.9 |
| 20260906204331 | 105 | 348 | 5.0 | 9.0 | 0.00 | 0.00 | 0.00 | 22 | 1013.4 |
| 20260906203836 | 104 | 283 | 3.0 | 7.0 | 0.00 | 0.00 | 0.00 | 23 | 1013.4 |
| 20260906203324 | 103 | 70 | 2.0 | 7.0 | 0.00 | 0.00 | 0.00 | 22 | 1013.5 |
| 20260906203023 | 103 | 236 | 3.0 | 6.0 | 0.00 | 0.00 | 0.00 | 26 | 1010.1 |
| 20260906202829 | 104 | 196 | 2.0 | 5.0 | 0.00 | 0.00 | 0.00 | 22 | 1013.6 |
| 20260906202318 | 104 | 161 | 3.0 | 7.0 | 0.00 | 0.00 | 0.00 | 22 | 1013.7 |
| 20260906201843 | 104 | 304 | 3.0 | 9.0 | 0.00 | 0.00 | 0.00 | 23 | 1013.7 |
| 20260906201528 | 103 | 286 | 2.0 | 10.0 | 0.00 | 0.00 | 0.00 | 26 | 1010.2 |
| 20260906201331 | 103 | 279 | 2.0 | 9.0 | 0.00 | 0.00 | 0.00 | 24 | 1013.7 |
| 20260906200836 | 103 | 245 | 5.0 | 9.0 | 0.00 | 0.00 | 0.00 | 23 | 1013.8 |
| 20260906200324 | 103 | 277 | 4.0 | 9.0 | 0.00 | 0.00 | 0.00 | 23 | 1013.7 |
| 20260906200005 | 102 | 225 | 3.0 | 9.0 | 0.00 | 0.00 | 0.00 | 27 | 1010.2 |
| 20260906195827 | 102 | 244 | 2.0 | 8.0 | 0.00 | 0.00 | 0.00 | 24 | 1013.8 |
| 20260906195316 | 104 | 237 | 4.0 | 8.0 | 0.00 | 0.00 | 0.00 | 23 | 1013.9 |
| 20260906194821 | 103 | 256 | 2.0 | 5.0 | 0.00 | 0.00 | 0.00 | 23 | 1013.9 |
| 20260906194514 | 103 | 352 | 3.0 | 7.0 | 0.00 | 0.00 | 0.00 | 26 | 1010.6 |
| 20260906194330 | 103 | 283 | 2.0 | 7.0 | 0.00 | 0.00 | 0.00 | 24 | 1014.0 |
| 20260906193818 | 102 | 351 | 1.0 | 7.0 | 0.00 | 0.00 | 0.00 | 24 | 1014.1 |
| 20260906193327 | 102 | 289 | 2.0 | 7.0 | 0.00 | 0.00 | 0.00 | 24 | 1014.1 |
| 20260906193020 | 101 | 197 | 1.0 | 7.0 | 0.00 | 0.00 | 0.00 | 28 | 1010.7 |
| 20260906192832 | 102 | 203 | 2.0 | 7.0 | 0.00 | 0.00 | 0.00 | 24 | 1014.1 |
| 20260906192321 | 101 | 190 | 2.0 | 5.0 | 0.00 | 0.00 | 0.00 | 24 | 1014.2 |
| 20260906191847 | 101 | 310 | 3.0 | 5.0 | 0.00 | 0.00 | 0.00 | 24 | 1014.3 |
| 20260906191528 | 101 | 311 | 2.0 | 9.0 | 0.00 | 0.00 | 0.00 | 28 | 1010.9 |
| 20260906191315 | 101 | 241 | 2.0 | 9.0 | 0.00 | 0.00 | 0.00 | 24 | 1014.3 |
| 20260906190820 | 101 | 230 | 4.0 | 9.0 | 0.00 | 0.00 | 0.00 | 25 | 1014.3 |
| 20260906190330 | 100 | 222 | 2.0 | 5.0 | 0.00 | 0.00 | 0.00 | 25 | 1014.4 |
| 20260906190029 | 100 | 292 | 3.0 | 6.0 | 0.00 | 0.00 | 0.00 | 28 | 1011.1 |
| 20260906185815 | 100 | 292 | 2.0 | 6.0 | 0.00 | 0.00 | 0.00 | 25 | 1014.6 |
| 20260906185324 | 99 | 307 | 2.0 | 6.0 | 0.00 | 0.00 | 0.00 | 27 | 1014.6 |
| 20260906184849 | 98 | 288 | 1.0 | 6.0 | 0.00 | 0.00 | 0.00 | 26 | 1014.7 |
| 20260906184512 | 98 | 219 | 3.0 | 6.0 | 0.00 | 0.00 | 0.00 | 30 | 1011.4 |
| 20260906184321 | 98 | 254 | 2.0 | 5.0 | 0.00 | 0.00 | 0.00 | 26 | 1014.8 |
| 20260906183826 | 99 | 277 | 2.0 | 5.0 | 0.00 | 0.00 | 0.00 | 26 | 1014.9 |
| 20260906183314 | 99 | 202 | 2.0 | 7.0 | 0.00 | 0.00 | 0.00 | 28 | 1015.0 |
| 20260906183017 | 97 | 257 | 2.0 | 7.0 | 0.00 | 0.00 | 0.00 | 31 | 1011.6 |
| 20260906182819 | 98 | 173 | 1.0 | 7.0 | 0.00 | 0.00 | 0.00 | 27 | 1015.1 |
| 20260906182348 | 98 | 252 | 3.0 | 7.0 | 0.00 | 0.00 | 0.00 | 28 | 1015.1 |
| 20260906181832 | 97 | 335 | 2.0 | 4.0 | 0.00 | 0.00 | 0.00 | 29 | 1015.2 |
| 20260906181523 | 96 | 37 | 1.0 | 5.0 | 0.00 | 0.00 | 0.00 | 33 | 1011.8 |
| 20260906181341 | 96 | 178 | 2.0 | 5.0 | 0.00 | 0.00 | 0.00 | 29 | 1015.2 |
| 20260906180826 | 97 | 232 | 3.0 | 8.0 | 0.00 | 0.00 | 0.00 | 29 | 1015.4 |
| 20260906180335 | 96 | 266 | 2.0 | 4.0 | 0.00 | 0.00 | 0.00 | 31 | 1015.4 |
| 20260906180053 | 95 | 256 | 2.0 | 4.0 | 0.00 | 0.00 | 0.00 | 35 | 1011.9 |
| 20260906175819 | 96 | 260 | 1.0 | 4.0 | 0.00 | 0.00 | 0.00 | 32 | 1015.4 |
| 20260906175348 | 95 | 222 | 2.0 | 7.0 | 0.00 | 0.00 | 0.00 | 32 | 1015.5 |
| 20260906174852 | 96 | 254 | 4.0 | 7.0 | 0.00 | 0.00 | 0.00 | 31 | 1015.5 |
| 20260906174507 | 95 | 223 | 3.0 | 7.0 | 0.00 | 0.00 | 0.00 | 35 | 1012.0 |
| 20260906174320 | 95 | 270 | 2.0 | 5.0 | 0.00 | 0.00 | 0.00 | 32 | 1015.5 |
| 20260906173845 | 94 | 294 | 2.0 | 6.0 | 0.00 | 0.00 | 0.00 | 33 | 1015.6 |
| 20260906173317 | 94 | 278 | 1.0 | 6.0 | 0.00 | 0.00 | 0.00 | 32 | 1015.6 |
| 20260906173014 | 94 | 327 | 2.0 | 5.0 | 0.00 | 0.00 | 0.00 | 36 | 1012.3 |
| 20260906172822 | 94 | 336 | 2.0 | 5.0 | 0.00 | 0.00 | 0.00 | 33 | 1015.8 |
| 20260906172331 | 94 | 289 | 2.0 | 6.0 | 0.00 | 0.00 | 0.00 | 33 | 1015.8 |
| 20260906171816 | 94 | 338 | 2.0 | 6.0 | 0.00 | 0.00 | 0.00 | 34 | 1015.9 |
| 20260906171519 | 93 | 206 | 3.0 | 6.0 | 0.00 | 0.00 | 0.00 | 37 | 1012.4 |
| 20260906171325 | 93 | 323 | 1.0 | 4.0 | 0.00 | 0.00 | 0.00 | 34 | 1015.9 |
| 20260906170830 | 92 | 259 | 1.0 | 4.0 | 0.00 | 0.00 | 0.00 | 35 | 1015.9 |
| 20260906170340 | 93 | 230 | 1.0 | 5.0 | 0.00 | 0.00 | 0.00 | 34 | 1015.9 |
| 20260906170025 | 92 | 281 | 2.0 | 7.0 | 0.00 | 0.00 | 0.00 | 38 | 1012.4 |
| 20260906165824 | 93 | 325 | 2.0 | 7.0 | 0.00 | 0.00 | 0.00 | 33 | 1015.9 |
| 20260906165333 | 93 | 290 | 2.0 | 6.0 | 0.00 | 0.00 | 0.00 | 35 | 1016.0 |
| 20260906164818 | 92 | 288 | 1.0 | 6.0 | 0.00 | 0.00 | 0.00 | 35 | 1016.0 |
| 20260906164530 | 91 | 293 | 2.0 | 4.0 | 0.00 | 0.00 | 0.00 | 39 | 1012.5 |
| 20260906164331 | 91 | 232 | 2.0 | 4.0 | 0.00 | 0.00 | 0.00 | 35 | 1015.9 |
| 20260906163816 | 91 | 260 | 2.0 | 4.0 | 0.00 | 0.00 | 0.00 | 36 | 1016.0 |
| 20260906163325 | 91 | 229 | 3.0 | 4.0 | 0.00 | 0.00 | 0.00 | 36 | 1015.9 |
| 20260906163008 | 90 | 228 | 2.0 | 5.0 | 0.00 | 0.00 | 0.00 | 40 | 1012.5 |
| 20260906162830 | 90 | 271 | 2.0 | 5.0 | 0.00 | 0.00 | 0.00 | 36 | 1015.9 |
| 20260906162339 | 90 | 259 | 1.0 | 5.0 | 0.00 | 0.00 | 0.00 | 36 | 1016.0 |
| 20260906161823 | 90 | 315 | 3.0 | 4.0 | 0.00 | 0.00 | 0.00 | 36 | 1015.9 |
| 20260906161519 | 89 | 224 | 2.0 | 4.0 | 0.00 | 0.00 | 0.00 | 40 | 1012.5 |
| 20260906161331 | 89 | 240 | 1.0 | 4.0 | 0.00 | 0.00 | 0.00 | 37 | 1015.9 |
| 20260906160816 | 89 | 258 | 1.0 | 3.0 | 0.00 | 0.00 | 0.00 | 38 | 1015.9 |
| 20260906160325 | 88 | 194 | 1.0 | 2.0 | 0.00 | 0.00 | 0.00 | 39 | 1015.9 |
| 20260906160026 | 87 | 196 | 0.0 | 3.0 | 0.00 | 0.00 | 0.00 | 43 | 1012.5 |
| 20260906155830 | 88 | 196 | 1.0 | 3.0 | 0.00 | 0.00 | 0.00 | 40 | 1015.9 |
| 20260906155339 | 88 | 209 | 1.0 | 3.0 | 0.00 | 0.00 | 0.00 | 39 | 1016.0 |
| 20260906154823 | 87 | 216 | 1.0 | 3.0 | 0.00 | 0.00 | 0.00 | 41 | 1016.1 |
| 20260906154529 | 87 | 207 | 1.0 | 3.0 | 0.00 | 0.00 | 0.00 | 44 | 1012.7 |
| 20260906154316 | 88 | 200 | 1.0 | 3.0 | 0.00 | 0.00 | 0.00 | 40 | 1016.1 |
| 20260906153821 | 87 | 139 | 0.0 | 2.0 | 0.00 | 0.00 | 0.00 | 42 | 1016.2 |
| 20260906153330 | 87 | 161 | 0.0 | 2.0 | 0.00 | 0.00 | 0.00 | 43 | 1016.2 |
| 20260906153032 | 86 | 78 | 0.0 | 2.0 | 0.00 | 0.00 | 0.00 | 46 | 1012.7 |
| 20260906152815 | 87 | 78 | 1.0 | 2.0 | 0.00 | 0.00 | 0.00 | 43 | 1016.2 |
| 20260906152324 | 86 | 85 | 0.0 | 2.0 | 0.00 | 0.00 | 0.00 | 45 | 1016.2 |
| 20260906151829 | 85 | 85 | 0.0 | 2.0 | 0.00 | 0.00 | 0.00 | 46 | 1016.2 |
| 20260906151515 | 85 | 85 | 0.0 | 2.0 | 0.00 | 0.00 | 0.00 | 49 | 1012.8 |
| 20260906151318 | 85 | 85 | 0.0 | 2.0 | 0.00 | 0.00 | 0.00 | 46 | 1016.2 |
| 20260906150844 | 86 | 85 | 0.0 | 2.0 | 0.00 | 0.00 | 0.00 | 47 | 1016.2 |
| 20260906150331 | 85 | 94 | 1.0 | 3.0 | 0.00 | 0.00 | 0.00 | 47 | 1016.1 |
| 20260906150024 | 84 | 112 | 1.0 | 3.0 | 0.00 | 0.00 | 0.00 | 51 | 1012.6 |
| 20260906145816 | 85 | 85 | 0.0 | 3.0 | 0.00 | 0.00 | 0.00 | 48 | 1016.1 |
| 20260906145325 | 85 | 82 | 1.0 | 2.0 | 0.00 | 0.00 | 0.00 | 46 | 1016.1 |
| 20260906144814 | 84 | 109 | 1.0 | 2.0 | 0.00 | 0.00 | 0.00 | 48 | 1016.1 |
| 20260906144533 | 83 | 94 | 0.0 | 3.0 | 0.00 | 0.00 | 0.00 | 52 | 1012.6 |
| 20260906144323 | 83 | 96 | 1.0 | 3.0 | 0.00 | 0.00 | 0.00 | 49 | 1016.1 |
| 20260906143828 | 83 | 100 | 0.0 | 4.0 | 0.00 | 0.00 | 0.00 | 49 | 1016.1 |
| 20260906143319 | 83 | 99 | 2.0 | 4.0 | 0.00 | 0.00 | 0.00 | 48 | 1016.1 |
| 20260906143007 | 82 | 84 | 2.0 | 4.0 | 0.00 | 0.00 | 0.00 | 53 | 1012.6 |
| 20260906142824 | 83 | 86 | 2.0 | 4.0 | 0.00 | 0.00 | 0.00 | 48 | 1016.0 |
| 20260906142333 | 82 | 93 | 2.0 | 4.0 | 0.00 | 0.00 | 0.00 | 50 | 1016.0 |
| 20260906141838 | 82 | 78 | 2.0 | 2.0 | 0.00 | 0.00 | 0.00 | 49 | 1015.9 |
| 20260906141509 | 81 | 81 | 1.0 | 2.0 | 0.00 | 0.00 | 0.00 | 53 | 1012.3 |
| 20260906141346 | 82 | 79 | 1.0 | 2.0 | 0.00 | 0.00 | 0.00 | 50 | 1015.7 |
| 20260906140830 | 81 | 86 | 1.0 | 2.0 | 0.00 | 0.00 | 0.00 | 52 | 1015.6 |
| 20260906140338 | 80 | 76 | 0.0 | 2.0 | 0.00 | 0.00 | 0.00 | 54 | 1015.5 |
| 20260906140028 | 79 | 75 | 1.0 | 2.0 | 0.00 | 0.00 | 0.00 | 57 | 1012.0 |
| 20260906135823 | 80 | 83 | 1.0 | 2.0 | 0.00 | 0.00 | 0.00 | 54 | 1015.5 |
| 20260906135316 | 79 | 68 | 1.0 | 1.0 | 0.00 | 0.00 | 0.00 | 57 | 1015.4 |
| 20260906134821 | 79 | 55 | 1.0 | 1.0 | 0.00 | 0.00 | 0.00 | 59 | 1015.4 |
| 20260906134525 | 78 | 55 | 0.0 | 1.0 | 0.00 | 0.00 | 0.00 | 64 | 1011.9 |
| 20260906134330 | 78 | 55 | 0.0 | 0.0 | 0.00 | 0.00 | 0.00 | 60 | 1015.3 |
| 20260906133815 | 78 | 55 | 0.0 | 0.0 | 0.00 | 0.00 | 0.00 | 60 | 1015.2 |
| 20260906133323 | 78 | 55 | 0.0 | 0.0 | 0.00 | 0.00 | 0.00 | 60 | 1015.2 |
| 20260906133007 | 77 | 55 | 0.0 | 2.0 | 0.00 | 0.00 | 0.00 | 64 | 1011.6 |
| 20260906132828 | 77 | 55 | 0.0 | 2.0 | 0.00 | 0.00 | 0.00 | 60 | 1015.1 |
| 20260906132319 | 77 | 55 | 0.0 | 2.0 | 0.00 | 0.00 | 0.00 | 62 | 1015.0 |
| 20260906131823 | 77 | 55 | 0.0 | 2.0 | 0.00 | 0.00 | 0.00 | 63 | 1015.0 |
| 20260906131515 | 76 | 55 | 0.0 | 0.0 | 0.00 | 0.00 | 0.00 | 67 | 1011.5 |
| 20260906131331 | 77 | 55 | 0.0 | 0.0 | 0.00 | 0.00 | 0.00 | 64 | 1015.1 |
| 20260906130837 | 77 | 55 | 0.0 | 0.0 | 0.00 | 0.00 | 0.00 | 63 | 1015.0 |
| 20260906130326 | 77 | 55 | 0.0 | 0.0 | 0.00 | 0.00 | 0.00 | 62 | 1014.8 |
| 20260906130015 | 77 | 55 | 0.0 | 1.0 | 0.00 | 0.00 | 0.00 | 64 | 1011.3 |
| 20260906125815 | 77 | 55 | 0.0 | 2.0 | 0.00 | 0.00 | 0.00 | 61 | 1014.8 |
| 20260906125324 | 77 | 55 | 0.0 | 2.0 | 0.00 | 0.00 | 0.00 | 61 | 1014.8 |
| 20260906124849 | 77 | 55 | 0.0 | 2.0 | 0.00 | 0.00 | 0.00 | 62 | 1014.9 |
| 20260906124523 | 77 | 55 | 0.0 | 2.0 | 0.00 | 0.00 | 0.00 | 64 | 1011.3 |
| 20260906124318 | 78 | 55 | 0.0 | 2.0 | 0.00 | 0.00 | 0.00 | 60 | 1014.8 |
| 20260906123824 | 78 | 55 | 1.0 | 2.0 | 0.00 | 0.00 | 0.00 | 61 | 1014.8 |
| 20260906123315 | 77 | 351 | 0.0 | 2.0 | 0.00 | 0.00 | 0.00 | 63 | 1014.7 |
| 20260906123028 | 77 | 331 | 0.0 | 1.0 | 0.00 | 0.00 | 0.00 | 65 | 1011.3 |
| 20260906122819 | 78 | 331 | 0.0 | 1.0 | 0.00 | 0.00 | 0.00 | 61 | 1014.8 |
| 20260906122328 | 78 | 331 | 0.0 | 1.0 | 0.00 | 0.00 | 0.00 | 61 | 1014.8 |
| 20260906121832 | 78 | 331 | 0.0 | 1.0 | 0.00 | 0.00 | 0.00 | 61 | 1014.8 |
| 20260906121508 | 77 | 331 | 0.0 | 0.0 | 0.00 | 0.00 | 0.00 | 64 | 1011.4 |
| 20260906121323 | 78 | 331 | 0.0 | 0.0 | 0.00 | 0.00 | 0.00 | 61 | 1014.8 |
| 20260906120847 | 77 | 331 | 0.0 | 0.0 | 0.00 | 0.00 | 0.00 | 61 | 1014.8 |
| 20260906120318 | 78 | 331 | 0.0 | 0.0 | 0.00 | 0.00 | 0.00 | 61 | 1014.8 |
| 20260906120014 | 77 | 331 | 0.0 | 0.0 | 0.00 | 0.00 | 0.00 | 64 | 1011.3 |
| 20260906115830 | 78 | 331 | 0.0 | 0.0 | 0.00 | 0.00 | 0.00 | 61 | 1014.8 |
| 20260906115338 | 78 | 331 | 0.0 | 0.0 | 0.00 | 0.00 | 0.00 | 60 | 1014.7 |
| 20260906114821 | 78 | 331 | 0.0 | 0.0 | 0.00 | 0.00 | 0.00 | 59 | 1014.7 |
| 20260906114521 | 78 | 331 | 0.0 | 0.0 | 0.00 | 0.00 | 0.00 | 62 | 1011.2 |
| 20260906114331 | 78 | 331 | 0.0 | 0.0 | 0.00 | 0.00 | 0.00 | 59 | 1014.7 |
| 20260906113837 | 78 | 331 | 0.0 | 0.0 | 0.00 | 0.00 | 0.00 | 60 | 1014.7 |
| 20260906113324 | 78 | 331 | 0.0 | 0.0 | 0.00 | 0.00 | 0.00 | 59 | 1014.7 |
| 20260906113027 | 78 | 331 | 0.0 | 0.0 | 0.00 | 0.00 | 0.00 | 62 | 1011.2 |
| 20260906112830 | 78 | 331 | 0.0 | 0.0 | 0.00 | 0.00 | 0.00 | 59 | 1014.7 |
| 20260906112321 | 78 | 331 | 0.0 | 0.0 | 0.00 | 0.00 | 0.00 | 57 | 1014.7 |
| 20260906111826 | 79 | 331 | 0.0 | 0.0 | 0.00 | 0.00 | 0.00 | 55 | 1014.7 |
| 20260906111529 | 78 | 331 | 0.0 | 0.0 | 0.00 | 0.00 | 0.00 | 58 | 1011.1 |
| 20260906111314 | 79 | 331 | 0.0 | 0.0 | 0.00 | 0.00 | 0.00 | 54 | 1014.6 |
| 20260906110818 | 79 | 331 | 0.0 | 0.0 | 0.00 | 0.00 | 0.00 | 54 | 1014.6 |
| 20260906110328 | 79 | 331 | 0.0 | 2.0 | 0.00 | 0.00 | 0.00 | 55 | 1014.6 |
| 20260906110009 | 79 | 331 | 0.0 | 2.0 | 0.00 | 0.00 | 0.00 | 60 | 1011.1 |
| 20260906105817 | 80 | 331 | 0.0 | 2.0 | 0.00 | 0.00 | 0.00 | 55 | 1014.6 |
| 20260906105325 | 80 | 331 | 0.0 | 1.0 | 0.00 | 0.00 | 0.00 | 54 | 1014.6 |
| 20260906104831 | 80 | 342 | 0.0 | 0.0 | 0.00 | 0.00 | 0.00 | 54 | 1014.6 |
| 20260906104532 | 79 | 342 | 0.0 | 0.0 | 0.00 | 0.00 | 0.00 | 58 | 1011.1 |
| 20260906104319 | 80 | 342 | 0.0 | 0.0 | 0.00 | 0.00 | 0.00 | 55 | 1014.6 |
| 20260906103823 | 80 | 342 | 0.0 | 0.0 | 0.00 | 0.00 | 0.00 | 56 | 1014.7 |
| 20260906103331 | 80 | 342 | 0.0 | 0.0 | 0.00 | 0.00 | 0.00 | 56 | 1014.7 |
| 20260906103024 | 80 | 342 | 0.0 | 0.0 | 0.00 | 0.00 | 0.00 | 57 | 1011.0 |
| 20260906102817 | 80 | 342 | 0.0 | 0.0 | 0.00 | 0.00 | 0.00 | 55 | 1014.6 |
| 20260906102345 | 80 | 342 | 0.0 | 2.0 | 0.00 | 0.00 | 0.00 | 56 | 1014.6 |
| 20260906101830 | 80 | 342 | 0.0 | 2.0 | 0.00 | 0.00 | 0.00 | 54 | 1014.6 |
| 20260906101527 | 80 | 349 | 0.0 | 2.0 | 0.00 | 0.00 | 0.00 | 58 | 1011.0 |
| 20260906101319 | 80 | 349 | 0.0 | 2.0 | 0.00 | 0.00 | 0.00 | 55 | 1014.6 |
| 20260906100844 | 80 | 349 | 0.0 | 0.0 | 0.00 | 0.00 | 0.00 | 55 | 1014.5 |
| 20260906100331 | 80 | 349 | 0.0 | 2.0 | 0.00 | 0.00 | 0.00 | 54 | 1014.6 |
| 20260906100028 | 80 | 349 | 0.0 | 2.0 | 0.00 | 0.00 | 0.00 | 57 | 1011.0 |
| 20260906095820 | 80 | 349 | 0.0 | 2.0 | 0.00 | 0.00 | 0.00 | 54 | 1014.5 |
| 20260906095330 | 80 | 349 | 0.0 | 2.0 | 0.00 | 0.00 | 0.00 | 55 | 1014.5 |
| 20260906094835 | 80 | 349 | 0.0 | 0.0 | 0.00 | 0.00 | 0.00 | 55 | 1014.4 |
| 20260906094530 | 80 | 349 | 0.0 | 0.0 | 0.00 | 0.00 | 0.00 | 58 | 1010.9 |
| 20260906094321 | 80 | 349 | 0.0 | 0.0 | 0.00 | 0.00 | 0.00 | 54 | 1014.4 |
| 20260906093825 | 80 | 349 | 0.0 | 2.0 | 0.00 | 0.00 | 0.00 | 55 | 1014.5 |
| 20260906093335 | 80 | 349 | 0.0 | 2.0 | 0.00 | 0.00 | 0.00 | 54 | 1014.5 |
| 20260906093034 | 80 | 349 | 0.0 | 2.0 | 0.00 | 0.00 | 0.00 | 57 | 1010.9 |
| 20260906092819 | 81 | 349 | 0.0 | 0.0 | 0.00 | 0.00 | 0.00 | 53 | 1014.5 |
| 20260906092327 | 81 | 349 | 0.0 | 0.0 | 0.00 | 0.00 | 0.00 | 54 | 1014.5 |
| 20260906091831 | 81 | 349 | 0.0 | 0.0 | 0.00 | 0.00 | 0.00 | 53 | 1014.5 |
| 20260906091527 | 80 | 349 | 0.0 | 0.0 | 0.00 | 0.00 | 0.00 | 58 | 1011.0 |
| 20260906091320 | 81 | 349 | 0.0 | 0.0 | 0.00 | 0.00 | 0.00 | 54 | 1014.5 |
| 20260906090826 | 81 | 349 | 0.0 | 0.0 | 0.00 | 0.00 | 0.00 | 54 | 1014.5 |
| 20260906090316 | 81 | 349 | 0.0 | 0.0 | 0.00 | 0.00 | 0.00 | 54 | 1014.5 |
| 20260906090031 | 80 | 349 | 0.0 | 0.0 | 0.00 | 0.00 | 0.00 | 57 | 1011.0 |
| 20260906085821 | 81 | 349 | 0.0 | 0.0 | 0.00 | 0.00 | 0.00 | 54 | 1014.6 |
| 20260906085314 | 81 | 349 | 0.0 | 2.0 | 0.00 | 0.00 | 0.00 | 53 | 1014.6 |
| 20260906084818 | 82 | 349 | 0.0 | 2.0 | 0.00 | 0.00 | 0.00 | 52 | 1014.7 |
| 20260906084545 | 81 | 349 | 0.0 | 2.0 | 0.00 | 0.00 | 0.00 | 56 | 1011.1 |
| 20260906084328 | 82 | 349 | 0.0 | 2.0 | 0.00 | 0.00 | 0.00 | 53 | 1014.6 |
| 20260906083833 | 81 | 349 | 0.0 | 0.0 | 0.00 | 0.00 | 0.00 | 53 | 1014.6 |
| 20260906083322 | 82 | 349 | 0.0 | 0.0 | 0.00 | 0.00 | 0.00 | 52 | 1014.7 |
| 20260906083018 | 81 | 349 | 0.0 | 0.0 | 0.00 | 0.00 | 0.00 | 56 | 1011.2 |
| 20260906082826 | 82 | 349 | 0.0 | 0.0 | 0.00 | 0.00 | 0.00 | 54 | 1014.7 |
| 20260906082315 | 82 | 349 | 0.0 | 0.0 | 0.00 | 0.00 | 0.00 | 53 | 1014.7 |
| 20260906081821 | 82 | 349 | 0.0 | 0.0 | 0.00 | 0.00 | 0.00 | 51 | 1014.8 |
| 20260906081524 | 82 | 349 | 0.0 | 0.0 | 0.00 | 0.00 | 0.00 | 54 | 1011.3 |
| 20260906081330 | 82 | 349 | 0.0 | 0.0 | 0.00 | 0.00 | 0.00 | 51 | 1014.8 |
| 20260906080818 | 82 | 349 | 0.0 | 0.0 | 0.00 | 0.00 | 0.00 | 51 | 1014.9 |
| 20260906080328 | 82 | 349 | 0.0 | 0.0 | 0.00 | 0.00 | 0.00 | 52 | 1014.9 |
| 20260906080034 | 81 | 349 | 0.0 | 2.0 | 0.00 | 0.00 | 0.00 | 55 | 1011.4 |
| 20260906075832 | 82 | 349 | 0.0 | 2.0 | 0.00 | 0.00 | 0.00 | 51 | 1014.9 |
| 20260906075342 | 83 | 349 | 0.0 | 2.0 | 0.00 | 0.00 | 0.00 | 50 | 1014.8 |
| 20260906074825 | 83 | 349 | 0.0 | 2.0 | 0.00 | 0.00 | 0.00 | 49 | 1014.8 |
| 20260906074533 | 82 | 349 | 0.0 | 1.0 | 0.00 | 0.00 | 0.00 | 52 | 1011.4 |
| 20260906074314 | 83 | 349 | 0.0 | 1.0 | 0.00 | 0.00 | 0.00 | 48 | 1014.8 |
| 20260906073818 | 83 | 349 | 0.0 | 2.0 | 0.00 | 0.00 | 0.00 | 46 | 1014.8 |
| 20260906073328 | 83 | 348 | 0.0 | 2.0 | 0.00 | 0.00 | 0.00 | 47 | 1014.9 |
| 20260906073016 | 83 | 335 | 0.0 | 2.0 | 0.00 | 0.00 | 0.00 | 50 | 1011.4 |
| 20260906072832 | 84 | 335 | 0.0 | 2.0 | 0.00 | 0.00 | 0.00 | 46 | 1014.9 |
| 20260906072321 | 84 | 335 | 0.0 | 2.0 | 0.00 | 0.00 | 0.00 | 46 | 1015.0 |
| 20260906071826 | 84 | 335 | 0.0 | 0.0 | 0.00 | 0.00 | 0.00 | 46 | 1014.9 |
| 20260906071521 | 83 | 335 | 0.0 | 0.0 | 0.00 | 0.00 | 0.00 | 49 | 1011.5 |
| 20260906071319 | 84 | 335 | 0.0 | 0.0 | 0.00 | 0.00 | 0.00 | 45 | 1015.0 |
| 20260906070824 | 84 | 335 | 0.0 | 0.0 | 0.00 | 0.00 | 0.00 | 45 | 1015.1 |
| 20260906070315 | 84 | 335 | 0.0 | 0.0 | 0.00 | 0.00 | 0.00 | 45 | 1015.0 |
| 20260906070032 | 84 | 335 | 0.0 | 0.0 | 0.00 | 0.00 | 0.00 | 48 | 1011.6 |
| 20260906065818 | 84 | 335 | 0.0 | 0.0 | 0.00 | 0.00 | 0.00 | 44 | 1015.0 |
| 20260906065347 | 85 | 335 | 0.0 | 2.0 | 0.00 | 0.00 | 0.00 | 44 | 1015.1 |
| 20260906064831 | 85 | 335 | 0.0 | 2.0 | 0.00 | 0.00 | 0.00 | 43 | 1015.1 |
| 20260906064533 | 85 | 335 | 0.0 | 2.0 | 0.00 | 0.00 | 0.00 | 47 | 1011.6 |
| 20260906064341 | 85 | 335 | 0.0 | 2.0 | 0.00 | 0.00 | 0.00 | 44 | 1015.1 |
| 20260906063825 | 86 | 335 | 0.0 | 2.0 | 0.00 | 0.00 | 0.00 | 42 | 1015.1 |
| 20260906063315 | 86 | 335 | 0.0 | 2.0 | 0.00 | 0.00 | 0.00 | 41 | 1015.1 |
| 20260906063032 | 85 | 333 | 0.0 | 2.0 | 0.00 | 0.00 | 0.00 | 45 | 1011.6 |
| 20260906062840 | 86 | 333 | 1.0 | 2.0 | 0.00 | 0.00 | 0.00 | 42 | 1015.1 |
| 20260906062327 | 85 | 323 | 0.0 | 2.0 | 0.00 | 0.00 | 0.00 | 43 | 1015.1 |
| 20260906061832 | 85 | 323 | 0.0 | 0.0 | 0.00 | 0.00 | 0.00 | 43 | 1015.1 |
| 20260906061518 | 85 | 323 | 0.0 | 0.0 | 0.00 | 0.00 | 0.00 | 47 | 1011.6 |
| 20260906061325 | 86 | 323 | 0.0 | 0.0 | 0.00 | 0.00 | 0.00 | 43 | 1015.1 |
| 20260906060851 | 86 | 323 | 0.0 | 1.0 | 0.00 | 0.00 | 0.00 | 42 | 1015.1 |
| 20260906060318 | 86 | 323 | 0.0 | 2.0 | 0.00 | 0.00 | 0.00 | 41 | 1015.1 |
| 20260906060034 | 86 | 323 | 0.0 | 2.0 | 0.00 | 0.00 | 0.00 | 45 | 1011.5 |
| 20260906055823 | 86 | 323 | 0.0 | 2.0 | 0.00 | 0.00 | 0.00 | 42 | 1015.1 |
| 20260906055332 | 87 | 323 | 0.0 | 0.0 | 0.00 | 0.00 | 0.00 | 41 | 1015.1 |
| 20260906054817 | 87 | 323 | 0.0 | 2.0 | 0.00 | 0.00 | 0.00 | 39 | 1015.1 |
| 20260906054532 | 87 | 323 | 0.0 | 2.0 | 0.00 | 0.00 | 0.00 | 42 | 1011.6 |
| 20260906054327 | 88 | 323 | 0.0 | 2.0 | 0.00 | 0.00 | 0.00 | 38 | 1015.1 |
| 20260906053831 | 88 | 323 | 0.0 | 2.0 | 0.00 | 0.00 | 0.00 | 38 | 1015.1 |
| 20260906053320 | 88 | 323 | 0.0 | 2.0 | 0.00 | 0.00 | 0.00 | 38 | 1015.0 |
| 20260906053033 | 87 | 325 | 0.0 | 2.0 | 0.00 | 0.00 | 0.00 | 42 | 1011.6 |
| 20260906052825 | 88 | 325 | 0.0 | 2.0 | 0.00 | 0.00 | 0.00 | 38 | 1015.1 |
| 20260906052318 | 88 | 325 | 0.0 | 2.0 | 0.00 | 0.00 | 0.00 | 38 | 1015.1 |
| 20260906051824 | 88 | 325 | 0.0 | 0.0 | 0.00 | 0.00 | 0.00 | 37 | 1015.1 |
| 20260906051531 | 88 | 325 | 0.0 | 0.0 | 0.00 | 0.00 | 0.00 | 41 | 1011.6 |
| 20260906051332 | 88 | 325 | 0.0 | 0.0 | 0.00 | 0.00 | 0.00 | 37 | 1015.1 |
| 20260906050818 | 88 | 325 | 0.0 | 2.0 | 0.00 | 0.00 | 0.00 | 37 | 1015.2 |
| 20260906050326 | 88 | 325 | 0.0 | 2.0 | 0.00 | 0.00 | 0.00 | 37 | 1015.2 |
| 20260906050026 | 88 | 325 | 0.0 | 2.0 | 0.00 | 0.00 | 0.00 | 40 | 1011.7 |
| 20260906045833 | 89 | 325 | 0.0 | 2.0 | 0.00 | 0.00 | 0.00 | 36 | 1015.2 |
| 20260906045321 | 89 | 325 | 0.0 | 2.0 | 0.00 | 0.00 | 0.00 | 35 | 1015.2 |
| 20260906044826 | 90 | 325 | 0.0 | 2.0 | 0.00 | 0.00 | 0.00 | 35 | 1015.2 |
| 20260906044526 | 90 | 325 | 0.0 | 2.0 | 0.00 | 0.00 | 0.00 | 37 | 1011.8 |
| 20260906044316 | 91 | 325 | 0.0 | 2.0 | 0.00 | 0.00 | 0.00 | 33 | 1015.3 |
| 20260906043821 | 91 | 324 | 0.0 | 2.0 | 0.00 | 0.00 | 0.00 | 33 | 1015.2 |
| 20260906043314 | 91 | 308 | 1.0 | 2.0 | 0.00 | 0.00 | 0.00 | 32 | 1015.2 |
| 20260906043032 | 91 | 316 | 1.0 | 3.0 | 0.00 | 0.00 | 0.00 | 35 | 1011.7 |
| 20260906042839 | 91 | 300 | 1.0 | 3.0 | 0.00 | 0.00 | 0.00 | 32 | 1015.2 |
| 20260906042328 | 92 | 328 | 0.0 | 3.0 | 0.00 | 0.00 | 0.00 | 32 | 1015.2 |
| 20260906041832 | 92 | 318 | 0.0 | 2.0 | 0.00 | 0.00 | 0.00 | 32 | 1015.2 |
| 20260906041512 | 91 | 313 | 0.0 | 3.0 | 0.00 | 0.00 | 0.00 | 35 | 1011.8 |
| 20260906041322 | 92 | 312 | 0.0 | 3.0 | 0.00 | 0.00 | 0.00 | 31 | 1015.2 |
| 20260906040847 | 92 | 315 | 1.0 | 3.0 | 0.00 | 0.00 | 0.00 | 31 | 1015.2 |
| 20260906040316 | 92 | 299 | 1.0 | 4.0 | 0.00 | 0.00 | 0.00 | 30 | 1015.2 |
| 20260906040017 | 92 | 323 | 1.0 | 4.0 | 0.00 | 0.00 | 0.00 | 34 | 1011.8 |
| 20260906035842 | 92 | 355 | 1.0 | 4.0 | 0.00 | 0.00 | 0.00 | 31 | 1015.2 |
| 20260906035349 | 93 | 340 | 0.0 | 4.0 | 0.00 | 0.00 | 0.00 | 30 | 1015.1 |
| 20260906034813 | 93 | 300 | 1.0 | 5.0 | 0.00 | 0.00 | 0.00 | 30 | 1015.1 |
| 20260906034526 | 92 | 284 | 2.0 | 5.0 | 0.00 | 0.00 | 0.00 | 34 | 1011.7 |
| 20260906034323 | 93 | 297 | 2.0 | 5.0 | 0.00 | 0.00 | 0.00 | 30 | 1015.1 |
| 20260906033827 | 93 | 331 | 1.0 | 3.0 | 0.00 | 0.00 | 0.00 | 30 | 1015.1 |
| 20260906033316 | 93 | 306 | 0.0 | 2.0 | 0.00 | 0.00 | 0.00 | 30 | 1015.0 |
| 20260906033014 | 92 | 352 | 1.0 | 2.0 | 0.00 | 0.00 | 0.00 | 34 | 1011.5 |
| 20260906032841 | 93 | 355 | 0.0 | 2.0 | 0.00 | 0.00 | 0.00 | 30 | 1014.9 |
| 20260906032333 | 93 | 336 | 1.0 | 2.0 | 0.00 | 0.00 | 0.00 | 29 | 1014.8 |
| 20260906031817 | 94 | 323 | 1.0 | 2.0 | 0.00 | 0.00 | 0.00 | 29 | 1014.8 |
| 20260906031513 | 93 | 283 | 1.0 | 4.0 | 0.00 | 0.00 | 0.00 | 32 | 1011.3 |
| 20260906031346 | 94 | 332 | 1.0 | 4.0 | 0.00 | 0.00 | 0.00 | 29 | 1014.7 |
| 20260906030830 | 94 | 319 | 1.0 | 4.0 | 0.00 | 0.00 | 0.00 | 29 | 1014.8 |
| 20260906030321 | 94 | 325 | 1.0 | 4.0 | 0.00 | 0.00 | 0.00 | 28 | 1014.7 |
| 20260906030013 | 94 | 284 | 2.0 | 5.0 | 0.00 | 0.00 | 0.00 | 32 | 1011.2 |
| 20260906025825 | 94 | 335 | 2.0 | 5.0 | 0.00 | 0.00 | 0.00 | 28 | 1014.6 |
| 20260906025313 | 94 | 304 | 2.0 | 5.0 | 0.00 | 0.00 | 0.00 | 28 | 1014.6 |
| 20260906024820 | 94 | 297 | 2.0 | 4.0 | 0.00 | 0.00 | 0.00 | 28 | 1014.6 |
| 20260906024513 | 94 | 301 | 1.0 | 7.0 | 0.00 | 0.00 | 0.00 | 31 | 1011.1 |
| 20260906024331 | 95 | 289 | 2.0 | 7.0 | 0.00 | 0.00 | 0.00 | 28 | 1014.6 |
| 20260906023818 | 95 | 321 | 3.0 | 7.0 | 0.00 | 0.00 | 0.00 | 27 | 1014.4 |
| 20260906023313 | 95 | 302 | 1.0 | 6.0 | 0.00 | 0.00 | 0.00 | 27 | 1014.4 |
| 20260906023015 | 94 | 344 | 2.0 | 6.0 | 0.00 | 0.00 | 0.00 | 31 | 1010.9 |
| 20260906022821 | 95 | 303 | 2.0 | 6.0 | 0.00 | 0.00 | 0.00 | 27 | 1014.3 |
| 20260906022351 | 95 | 297 | 1.0 | 7.0 | 0.00 | 0.00 | 0.00 | 27 | 1014.2 |
| 20260906021816 | 96 | 324 | 2.0 | 7.0 | 0.00 | 0.00 | 0.00 | 27 | 1014.2 |
| 20260906021511 | 95 | 301 | 3.0 | 7.0 | 0.00 | 0.00 | 0.00 | 30 | 1010.8 |
| 20260906021327 | 95 | 351 | 3.0 | 7.0 | 0.00 | 0.00 | 0.00 | 27 | 1014.3 |
| 20260906020814 | 96 | 313 | 3.0 | 8.0 | 0.00 | 0.00 | 0.00 | 27 | 1014.2 |
| 20260906020325 | 96 | 296 | 2.0 | 8.0 | 0.00 | 0.00 | 0.00 | 27 | 1014.3 |
| 20260906020015 | 96 | 296 | 2.0 | 9.0 | 0.00 | 0.00 | 0.00 | 30 | 1010.8 |
| 20260906015852 | 96 | 283 | 2.0 | 10.0 | 0.00 | 0.00 | 0.00 | 27 | 1014.3 |
| 20260906015322 | 96 | 263 | 3.0 | 10.0 | 0.00 | 0.00 | 0.00 | 26 | 1014.3 |
| 20260906014830 | 96 | 283 | 3.0 | 11.0 | 0.00 | 0.00 | 0.00 | 26 | 1014.3 |
| 20260906014525 | 96 | 313 | 4.0 | 11.0 | 0.00 | 0.00 | 0.00 | 30 | 1010.9 |
| 20260906014321 | 96 | 333 | 5.0 | 11.0 | 0.00 | 0.00 | 0.00 | 26 | 1014.4 |
| 20260906013813 | 97 | 314 | 1.0 | 8.0 | 0.00 | 0.00 | 0.00 | 27 | 1014.4 |
| 20260906013324 | 97 | 265 | 2.0 | 9.0 | 0.00 | 0.00 | 0.00 | 26 | 1014.4 |
| 20260906013015 | 97 | 265 | 5.0 | 9.0 | 0.00 | 0.00 | 0.00 | 29 | 1010.9 |
| 20260906012832 | 97 | 287 | 4.0 | 9.0 | 0.00 | 0.00 | 0.00 | 26 | 1014.4 |
| 20260906012323 | 97 | 319 | 2.0 | 9.0 | 0.00 | 0.00 | 0.00 | 26 | 1014.4 |
| 20260906011850 | 97 | 297 | 4.0 | 11.0 | 0.00 | 0.00 | 0.00 | 26 | 1014.5 |
| 20260906011505 | 97 | 298 | 6.0 | 11.0 | 0.00 | 0.00 | 0.00 | 28 | 1011.0 |
| 20260906011319 | 98 | 296 | 4.0 | 11.0 | 0.00 | 0.00 | 0.00 | 25 | 1014.5 |
| 20260906010847 | 98 | 278 | 3.0 | 12.0 | 0.00 | 0.00 | 0.00 | 25 | 1014.5 |
| 20260906010338 | 99 | 289 | 6.0 | 11.0 | 0.00 | 0.00 | 0.00 | 25 | 1014.5 |
| 20260906010011 | 98 | 278 | 6.0 | 11.0 | 0.00 | 0.00 | 0.00 | 28 | 1011.0 |
| 20260906005823 | 99 | 253 | 4.0 | 10.0 | 0.00 | 0.00 | 0.00 | 25 | 1014.4 |
| 20260906005315 | 99 | 315 | 4.0 | 10.0 | 0.00 | 0.00 | 0.00 | 25 | 1014.5 |
| 20260906004821 | 100 | 360 | 5.0 | 10.0 | 0.00 | 0.00 | 0.00 | 24 | 1014.5 |
| 20260906004531 | 99 | 304 | 3.0 | 10.0 | 0.00 | 0.00 | 0.00 | 28 | 1010.9 |
| 20260906004316 | 100 | 302 | 4.0 | 10.0 | 0.00 | 0.00 | 0.00 | 24 | 1014.4 |
| 20260906003844 | 100 | 329 | 4.0 | 10.0 | 0.00 | 0.00 | 0.00 | 25 | 1014.5 |
| 20260906003314 | 100 | 319 | 4.0 | 10.0 | 0.00 | 0.00 | 0.00 | 25 | 1014.5 |
| 20260906003014 | 100 | 343 | 4.0 | 10.0 | 0.00 | 0.00 | 0.00 | 28 | 1011.0 |
| 20260906002821 | 100 | 333 | 4.0 | 10.0 | 0.00 | 0.00 | 0.00 | 25 | 1014.4 |
| 20260906002332 | 101 | 291 | 4.0 | 10.0 | 0.00 | 0.00 | 0.00 | 24 | 1014.4 |
| 20260906001820 | 101 | 310 | 4.0 | 9.0 | 0.00 | 0.00 | 0.00 | 24 | 1014.4 |
| 20260906001518 | 100 | 265 | 4.0 | 9.0 | 0.00 | 0.00 | 0.00 | 28 | 1011.0 |
| 20260906001329 | 101 | 322 | 4.0 | 9.0 | 0.00 | 0.00 | 0.00 | 25 | 1014.3 |
| 20260906000816 | 101 | 276 | 4.0 | 12.0 | 0.00 | 0.00 | 0.00 | 25 | 1014.3 |
| 20260906000327 | 101 | 263 | 5.0 | 12.0 | 0.00 | 0.00 | 0.00 | 24 | 1014.3 |
| 20260906000010 | 101 | 255 | 2.0 | 12.0 | 0.00 | 0.00 | 0.00 | 28 | 1010.8 |
| 20260905235818 | 102 | 314 | 1.0 | 12.0 | 0.00 | 0.00 | 0.00 | 25 | 1014.2 |
| 20260905235329 | 102 | 306 | 7.0 | 12.0 | 0.00 | 0.00 | 0.00 | 25 | 1014.2 |
| 20260905234816 | 102 | 329 | 3.0 | 8.0 | 0.00 | 0.00 | 0.00 | 26 | 1014.2 |
| 20260905234512 | 101 | 333 | 4.0 | 8.0 | 0.00 | 0.00 | 0.00 | 29 | 1010.8 |
| 20260905234325 | 102 | 311 | 3.0 | 8.0 | 0.00 | 0.00 | 0.00 | 25 | 1014.2 |
| 20260905233833 | 102 | 307 | 2.0 | 9.0 | 0.00 | 0.00 | 0.00 | 26 | 1014.2 |
| 20260905233320 | 102 | 245 | 5.0 | 11.0 | 0.00 | 0.00 | 0.00 | 26 | 1014.2 |
| 20260905233016 | 102 | 245 | 7.0 | 14.0 | 0.00 | 0.00 | 0.00 | 29 | 1010.8 |
| 20260905232827 | 102 | 280 | 3.0 | 14.0 | 0.00 | 0.00 | 0.00 | 26 | 1014.2 |
| 20260905232317 | 102 | 242 | 4.0 | 14.0 | 0.00 | 0.00 | 0.00 | 26 | 1014.2 |
| 20260905231823 | 103 | 296 | 6.0 | 10.0 | 0.00 | 0.00 | 0.00 | 26 | 1014.2 |
| 20260905231520 | 102 | 259 | 5.0 | 11.0 | 0.00 | 0.00 | 0.00 | 30 | 1010.7 |
| 20260905231318 | 103 | 236 | 4.0 | 11.0 | 0.00 | 0.00 | 0.00 | 26 | 1014.2 |
| 20260905230825 | 102 | 263 | 4.0 | 8.0 | 0.00 | 0.00 | 0.00 | 26 | 1014.3 |
| 20260905230317 | 103 | 12 | 3.0 | 11.0 | 0.00 | 0.00 | 0.00 | 26 | 1014.3 |
| 20260905230019 | 103 | 315 | 3.0 | 11.0 | 0.00 | 0.00 | 0.00 | 30 | 1010.8 |
| 20260905225824 | 103 | 300 | 3.0 | 11.0 | 0.00 | 0.00 | 0.00 | 27 | 1014.3 |
| 20260905225315 | 103 | 342 | 4.0 | 10.0 | 0.00 | 0.00 | 0.00 | 26 | 1014.3 |
| 20260905224822 | 103 | 252 | 6.0 | 10.0 | 0.00 | 0.00 | 0.00 | 26 | 1014.3 |
| 20260905224522 | 103 | 262 | 3.0 | 8.0 | 0.00 | 0.00 | 0.00 | 30 | 1010.8 |
| 20260905224354 | 103 | 291 | 4.0 | 7.0 | 0.00 | 0.00 | 0.00 | 27 | 1014.3 |
| 20260905223818 | 102 | 263 | 4.0 | 10.0 | 0.00 | 0.00 | 0.00 | 27 | 1014.3 |
| 20260905223349 | 103 | 13 | 4.0 | 9.0 | 0.00 | 0.00 | 0.00 | 27 | 1014.3 |
| 20260905223017 | 102 | 297 | 5.0 | 9.0 | 0.00 | 0.00 | 0.00 | 30 | 1010.9 |
| 20260905222816 | 103 | 284 | 4.0 | 9.0 | 0.00 | 0.00 | 0.00 | 26 | 1014.4 |
| 20260905222327 | 102 | 355 | 2.0 | 6.0 | 0.00 | 0.00 | 0.00 | 27 | 1014.5 |
| 20260905221818 | 102 | 286 | 2.0 | 7.0 | 0.00 | 0.00 | 0.00 | 26 | 1014.6 |
| 20260905221520 | 102 | 102 | 1.0 | 7.0 | 0.00 | 0.00 | 0.00 | 30 | 1011.1 |
| 20260905221329 | 102 | 96 | 2.0 | 7.0 | 0.00 | 0.00 | 0.00 | 26 | 1014.7 |
| 20260905220817 | 102 | 178 | 2.0 | 6.0 | 0.00 | 0.00 | 0.00 | 26 | 1014.8 |
| 20260905220328 | 102 | 231 | 3.0 | 14.0 | 0.00 | 0.00 | 0.00 | 27 | 1014.8 |
| 20260905220023 | 102 | 261 | 4.0 | 14.0 | 0.00 | 0.00 | 0.00 | 30 | 1011.4 |
| 20260905215815 | 102 | 201 | 7.0 | 14.0 | 0.00 | 0.00 | 0.00 | 27 | 1014.9 |
| 20260905215327 | 103 | 242 | 4.0 | 7.0 | 0.00 | 0.00 | 0.00 | 27 | 1014.8 |
| 20260905214813 | 102 | 345 | 2.0 | 6.0 | 0.00 | 0.00 | 0.00 | 27 | 1015.0 |
| 20260905214508 | 102 | 260 | 3.0 | 7.0 | 0.00 | 0.00 | 0.00 | 31 | 1011.5 |
| 20260905214324 | 102 | 360 | 3.0 | 6.0 | 0.00 | 0.00 | 0.00 | 27 | 1015.0 |
| 20260905213816 | 102 | 164 | 1.0 | 8.0 | 0.00 | 0.00 | 0.00 | 28 | 1015.1 |
| 20260905213347 | 102 | 309 | 2.0 | 8.0 | 0.00 | 0.00 | 0.00 | 27 | 1015.2 |
| 20260905213028 | 101 | 286 | 4.0 | 10.0 | 0.00 | 0.00 | 0.00 | 31 | 1011.8 |
| 20260905212813 | 101 | 318 | 2.0 | 10.0 | 0.00 | 0.00 | 0.00 | 27 | 1015.3 |